Home   Weather   San Bernardino   Past weeks

Flag for USA Past Weather in San Bernardino, California, USA — Yesterday and Last 2 Weeks

Now
84 °F

Sunny.


Feels Like: 85 °F
Forecast: 67 / 97 °F
Wind: 14 mph from West

Location: Riverside Municipal Airport

Current Time: Jul 26, 2017 at 7:49:40 pm

Latest Report: Jul 26, 2017 at 6:53 pm


Visibility: 10 mi

Pressure: 29.88 "Hg

Humidity: 51%

Dew Point: 64 °F

Location of San BernardinoLocation

Past Weather in San Bernardino — Graph

°F

San Bernardino Temperature Yesterday

Maximum temperature yesterday: 90 °F (at 2:53 pm)
Minimum temperature yesterday: 68 °F (at 2:53 am)
Average temperature yesterday: 76 °F

High & Low Weather Summary for the Past Weeks

 TemperatureHumidityPressure
High100 °F (Jul 15, 1:53 pm)94% (Jul 21, 6:53 am)29.98 "Hg (Jul 21, 6:53 am)
Low63 °F (Jul 21, 5:53 am)24% (Jul 14, 2:53 pm)29.74 "Hg (Jul 23, 3:53 pm)
Average79 °F59%29.88 "Hg
* Reported Jul 11 5:53 pm — Jul 26 5:53 pm, San Bernardino. Weather by CustomWeather, © 2017

Note: Actual official high and low records may vary slightly from our data, if they occured in-between our weather recording intervals... More about our weather records

Advertising

San Bernardino Weather History for the Previous 24 Hours

Scroll right to see more
 ConditionsComfort  
Time TempWeatherWind HumidityBarometerVisibility
5:53 pm
Wed, Jul 26
88 °FSunny.14 mph43%29.86 "Hg10 mi
4:53 pm91 °FSunny.15 mph41%29.87 "Hg10 mi
3:53 pm93 °FSunny.15 mph38%29.87 "Hg10 mi
2:53 pm94 °FSunny.15 mph37%29.88 "Hg10 mi
1:53 pm94 °FSunny.6 mph38%29.89 "Hg10 mi
12:53 pm91 °FSunny.5 mph41%29.91 "Hg10 mi
11:53 am86 °FSunny.5 mph45%29.93 "Hg10 mi
10:53 am83 °FSunny.5 mph50%29.94 "Hg10 mi
9:53 am78 °FSunny.3 mph60%29.96 "Hg10 mi
8:53 am72 °FSunny.3 mph76%29.97 "Hg10 mi
7:53 am68 °FSunny.No wind84%29.98 "Hg10 mi
6:53 am66 °FSunny.3 mph90%29.98 "Hg10 mi
5:53 am65 °FClear.6 mph91%29.97 "Hg10 mi
4:53 am67 °FClear.3 mph85%29.96 "Hg10 mi
3:53 am67 °FClear.7 mph85%29.95 "Hg10 mi
2:53 am69 °FClear.5 mph79%29.96 "Hg10 mi
1:53 am70 °FClear.No wind76%29.96 "Hg10 mi
12:53 am70 °FClear.5 mph76%29.95 "Hg10 mi
11:53 pm
Tue, Jul 25
70 °FClear.3 mph76%29.95 "Hg10 mi
10:53 pm71 °FClear.5 mph73%29.96 "Hg10 mi
9:53 pm72 °FClear.6 mph73%29.95 "Hg10 mi
8:53 pm73 °FClear.8 mph71%29.93 "Hg10 mi
7:53 pm76 °FSunny.9 mph62%29.90 "Hg10 mi
Weather by CustomWeather, © 2017

See weather overviewHow to use our weather pages